Flag for Algeria Weather past 2 weeks in Oran, Algeria

Now
61 °F

Scattered clouds.


Feels Like: 61 °F
Forecast: 48 / 60 °F
Wind: 6 mph from West

Location: Oran / Es Senia

Current Time: Jan 28, 2015 at 6:16:36 PM

Latest Report: Jan 28, 2015 at 5:30 PM


Visibility: N/A

Pressure: 30.18 "Hg

Humidity: 68%

Dew point: 50 °F

Location of OranLocation

Historic Weather in Oran — Graph

°F

Oran temperature yesterday

Maximum temperature yesterday: 63 °F (at 3:00 PM)
Minimum temperature yesterday: 39 °F (at 5:00 AM)
Average temperature yesterday: 49 °F

Past Weeks' High & Low Weather Summary

 TemperatureHumidityPressure
High72 °F (Jan 14, 2:00 PM)100% (Jan 14, 7:00 AM)30.36 "Hg (Jan 14, 7:00 AM)
Low36 °F (Jan 26, 8:00 AM)39% (Jan 18, 3:00 PM)29.62 "Hg (Jan 19, 6:00 AM)
Average51 °F83%30.12 "Hg
* Reported Jan 13 5:00 PM — Jan 28 5:00 PM, Oran, Weather by CustomWeather, © 2014

Note: Actual official high and low records may vary slightly from our data, if they occured in-between our weather recording intervals... More about our weather records

Advertising

Oran weather history for previous 24 hours

 ConditionsComfort  
Time TempWeatherWind HumidityBarometerVisibility
5:00 PM
Jan 28
61 °FScattered clouds.3 mph68%30.18 "HgN/A
4:30 PM59 °FScattered clouds.5 mph72%30.18 "HgN/A
4:00 PM61 °FScattered clouds.8 mph68%30.18 "HgN/A
3:30 PM61 °FScattered clouds.6 mph68%30.21 "HgN/A
3:00 PM61 °FScattered clouds.6 mph68%30.21 "HgN/A
2:30 PM63 °FScattered clouds.7 mph64%30.21 "HgN/A
2:00 PM63 °FScattered clouds.9 mph64%30.21 "HgN/A
1:30 PM63 °FScattered clouds.9 mph59%30.24 "HgN/A
1:00 PM61 °FScattered clouds.8 mph63%30.24 "HgN/A
12:30 PM59 °FScattered clouds.10 mph63%30.24 "HgN/A
12:00 PM57 °FScattered clouds.9 mph67%30.24 "HgN/A
11:30 AM55 °FScattered clouds.8 mph77%30.24 "HgN/A
11:00 AM52 °FScattered clouds.5 mph88%30.24 "HgN/A
10:30 AM52 °FScattered clouds.7 mph88%30.24 "HgN/A
10:00 AM50 °FScattered clouds.6 mph94%30.24 "HgN/A
9:30 AM46 °FScattered clouds.5 mph87%30.21 "HgN/A
9:00 AM45 °FScattered clouds.5 mph93%30.21 "HgN/A
8:30 AM45 °FPassing clouds.1 mph87%30.21 "HgN/A
8:00 AM43 °FPassing clouds.5 mph93%30.21 "HgN/A
7:30 AM43 °FPassing clouds.2 mph93%30.21 "Hg5 mi
7:00 AM43 °FPassing clouds.2 mph93%30.21 "Hg5 mi
6:30 AM43 °FPassing clouds.2 mph93%30.30 "Hg5 mi
6:00 AM43 °FPassing clouds.2 mph93%30.30 "Hg4 mi
5:00 AM43 °FPassing clouds.2 mph93%30.30 "Hg4 mi
4:30 AM43 °FPassing clouds.2 mph100%30.30 "Hg4 mi
4:00 AM43 °FFog.2 mph100%30.30 "Hg2 mi
3:30 AM45 °FFog.2 mph93%30.21 "Hg2 mi
3:00 AM45 °FFog.2 mph93%30.21 "Hg2 mi
2:30 AM45 °FFog.2 mph100%30.21 "Hg1 mi
2:00 AM45 °FFog.No wind100%30.21 "Hg1 mi
1:30 AM45 °FFog.No wind100%30.21 "Hg1 mi
1:00 AM46 °FFog.2 mph93%30.21 "Hg1 mi
12:30 AM48 °FPassing clouds.2 mph94%30.24 "HgN/A
12:00 AM48 °FPassing clouds.7 mph94%30.24 "HgN/A
11:30 PM
Jan 27
48 °FPassing clouds.7 mph87%30.24 "HgN/A
11:00 PM48 °FPassing clouds.6 mph87%30.24 "HgN/A
10:30 PM50 °FPassing clouds.6 mph82%30.24 "HgN/A
10:00 PM50 °FPassing clouds.5 mph82%30.24 "HgN/A
9:30 PM48 °FPassing clouds.2 mph87%30.24 "HgN/A
9:00 PM50 °FPassing clouds.6 mph82%30.24 "HgN/A
8:30 PM50 °FPassing clouds.2 mph94%30.24 "HgN/A
8:00 PM52 °FPassing clouds.2 mph88%30.24 "HgN/A
7:30 PM52 °FPassing clouds.2 mph88%30.24 "HgN/A
7:00 PM54 °FPassing clouds.2 mph82%30.24 "HgN/A
6:30 PM55 °FPassing clouds.6 mph82%30.24 "HgN/A
6:00 PM59 °FScattered clouds.14 mph72%30.24 "HgN/A
Weather by CustomWeather, © 2014

See weather overviewHow to use our weather pages